Vertical_Velocity
-3 1 2 2 3 2 -2 1 2 -0 -6 2 3 1 -3 2 3 2 2 3 3 3 3 3 3 4 4 4 4 4 3 2 2 1 -0 -0 -1 -1 -1 -1 -0 0 0 0 0 1 3 4 4 4 4 2 -1 -4 -5 -4 -4 -3 -2 0 3 9 18 25 31 32 25 14 7 2 -3 -5 -6 -5 -5 -2 -0 1 2 1 -0 -1 -1 -1 -1 -1
-5 -3 -1 0 3 2 -4 0 4 3 -4 -0 2 2 1 2 2 2 3 2 2 2 3 2 3 4 4 3 4 4 3 3 2 2 1 1 1 0 -0 0 0 1 1 1 1 3 4 6 6 6 4 1 -1 -3 -4 -4 -4 -3 -2 -0 4 9 16 18 23 26 24 14 8 4 -0 -4 -5 -6 -6 -4 -2 -0 1 0 -0 -1 -1 -1 -1 -1
-3 -4 -5 -0 2 1 -4 -1 2 3 -0 -1 -0 1 4 3 3 3 4 2 1 1 3 2 3 4 4 4 4 4 3 3 3 3 2 2 2 2 2 2 2 2 2 3 3 3 3 3 3 2 1 -0 -2 -2 -3 -3 -3 -3 -2 -0 3 8 14 14 14 14 12 9 8 6 3 -1 -4 -6 -6 -6 -4 -3 -1 -1 -1 -1 -1 -1 -1 -0
0 -3 -6 1 3 1 -2 1 1 1 2 1 -1 -1 4 4 3 3 5 4 2 2 2 2 3 3 4 4 4 4 3 4 4 4 2 2 3 3 3 3 2 3 4 4 4 4 4 3 2 1 0 -1 -1 -2 -3 -3 -3 -2 -2 -1 2 6 11 12 11 9 6 6 6 5 4 1 -2 -5 -7 -7 -6 -5 -3 -2 -1 -1 -1 -2 -1 -0
1 -2 -6 2 3 1 -1 3 2 0 2 3 1 0 2 2 2 2 3 4 4 3 1 2 2 2 3 4 4 4 4 5 5 4 3 3 3 3 2 2 2 3 3 3 3 4 4 3 3 2 1 0 -0 -1 -1 -2 -3 -3 -3 -2 -0 3 7 10 11 10 7 6 5 4 2 0 -2 -4 -7 -7 -7 -5 -3 -2 -1 -1 -1 -1 -1 -0
1 -0 -4 1 1 -0 0 3 3 3 3 2 2 3 2 0 1 2 1 2 2 2 1 2 2 2 2 2 3 3 3 4 4 5 4 3 3 2 2 1 1 2 2 1 1 1 1 1 1 0 0 1 1 2 2 2 0 -2 -3 -3 -2 -0 2 6 8 9 9 8 7 5 2 -0 -3 -5 -6 -6 -5 -4 -2 -1 -0 0 -0 -1 -1 -0
-0 -0 1 -0 -1 -1 3 1 2 4 6 2 2 3 3 1 1 0 -1 -1 -0 -0 -0 1 1 1 1 1 1 2 2 2 3 4 4 3 2 1 1 1 1 1 1 0 -0 -0 -1 -1 -1 -1 -1 -0 1 2 3 4 4 2 -0 -1 -1 -0 0 2 4 6 8 8 7 6 5 1 -1 -3 -4 -3 -2 -1 -1 0 1 1 0 -0 -0 -0
-2 -2 4 1 -2 -2 2 2 2 2 4 3 3 3 3 2 2 0 -2 -2 -2 -2 -1 -1 0 2 1 0 0 1 1 2 2 2 2 2 1 1 1 1 1 1 1 1 0 -0 -1 -1 -1 -1 -1 -1 -0 1 1 2 4 5 4 3 3 2 2 2 3 4 5 5 5 5 5 3 1 0 -0 0 1 0 0 1 1 1 0 -0 -0 -0
-2 -3 0 3 2 0 -0 1 3 4 2 1 2 2 1 0 1 1 1 -2 -4 -3 -1 -2 -1 0 1 1 0 -0 0 2 2 1 1 1 1 1 0 0 1 1 1 1 1 1 0 -0 -1 -1 -1 -1 -1 -0 -0 0 2 4 6 6 6 5 4 3 3 4 3 3 3 3 4 4 3 3 3 3 2 1 0 0 1 1 1 0 -0 -0
-0 -0 -2 -0 3 4 2 -2 0 4 5 1 -0 0 1 -1 -2 0 3 -0 -2 -2 -1 -2 -2 -1 -1 1 1 0 -1 0 2 2 2 1 1 1 0 0 0 -0 0 0 1 1 2 1 1 0 -0 -0 -0 -1 -1 -2 -1 0 3 6 6 6 4 3 3 3 3 2 2 2 2 2 3 3 4 4 3 2 1 0 0 0 0 -0 -0 -0
-1 1 2 -1 -0 2 4 -1 -1 1 5 2 -0 -1 0 -2 -2 -1 1 1 2 2 0 -1 -1 -1 -2 -1 1 1 1 -1 -1 0 1 -0 0 1 1 1 0 0 -0 0 1 1 2 2 2 2 1 1 0 -0 -1 -2 -3 -3 -2 1 3 5 5 3 2 2 2 2 3 3 2 2 2 3 3 4 3 2 1 0 -0 -0 -0 -0 -1 -1
-0 -0 1 0 0 0 0 -1 -1 0 2 2 1 -1 -2 -3 -2 -1 -1 -0 3 5 3 1 1 2 0 -1 -0 2 4 1 -1 -1 0 -1 -2 -1 -1 -0 0 1 1 1 2 3 3 3 2 2 2 1 1 0 -1 -1 -2 -2 -2 -1 -0 1 3 2 2 1 2 2 3 3 3 3 2 2 3 3 3 2 1 0 -0 -0 -1 -1 -1 -0
-0 -0 -1 -0 0 1 0 0 0 0 1 1 1 -0 -3 -3 -1 1 -1 -2 -0 2 3 4 4 4 4 2 1 2 5 3 1 1 2 -0 -2 -2 -2 -2 -1 -0 1 2 3 4 4 3 3 3 2 1 1 0 0 -1 -1 -1 -1 -1 -1 -1 -0 1 1 1 2 2 3 3 3 2 2 2 2 2 2 2 1 1 -0 -0 -1 -0 -0 -0
-2 -1 -0 -0 -0 0 1 2 2 1 -0 0 0 -0 -2 -1 0 1 1 -1 -2 -2 2 3 4 4 5 6 4 4 5 3 3 3 5 2 -0 -1 -1 -1 -2 -1 0 2 2 2 3 3 2 2 2 2 1 1 1 0 -0 -1 -1 -1 -2 -2 -1 -1 -0 0 1 2 2 2 2 2 1 1 2 2 2 2 1 1 0 -0 -0 0 0 0
-1 -0 0 0 1 1 1 2 3 1 -1 -0 -0 -1 -1 -1 -1 -0 1 -1 -4 -3 2 2 2 3 6 6 6 7 7 5 4 4 5 3 2 2 3 1 -0 -1 2 3 2 1 1 3 1 -0 0 2 1 -0 -0 -0 -0 -1 -1 -1 -1 -2 -2 -1 -1 -0 1 1 1 2 2 1 1 1 1 2 2 2 2 1 1 0 0 0 1 1
-0 2 2 1 2 2 2 4 4 2 -1 -1 -1 -0 0 -2 -4 -4 1 -2 -4 -3 4 2 2 2 4 5 7 9 9 5 3 2 4 4 4 4 6 4 2 1 4 5 4 2 1 2 0 -1 -1 -0 -1 -2 -1 -1 -2 -1 -1 -1 -1 -1 -1 -1 -0 0 1 1 1 1 1 1 1 1 1 2 2 2 2 2 2 1 1 1 1 1
1 2 2 4 4 3 1 4 5 3 -0 -0 -1 -1 -0 -2 -3 -3 1 -1 -2 -1 1 0 3 5 3 6 9 11 8 5 0 -2 3 6 4 4 7 7 4 3 4 8 7 5 4 3 0 -1 -1 -2 -2 -3 -2 -3 -3 -2 -2 -2 -1 -1 -1 -0 0 1 1 2 2 1 1 1 1 1 1 2 3 3 3 2 2 2 2 1 1 0
2 4 4 5 4 2 2 4 3 1 -0 0 -1 -2 -1 -1 -1 -0 1 -1 -0 -0 -3 -2 1 5 5 10 10 8 8 8 1 -4 1 5 4 2 7 8 6 4 5 9 8 6 6 4 1 -0 0 -2 -2 -3 -4 -4 -4 -3 -2 -2 -2 -1 -1 0 1 2 2 2 2 2 2 1 1 1 1 2 2 3 3 3 2 2 2 1 1 0
2 4 7 5 2 0 1 2 1 1 1 -0 -1 0 4 1 0 2 3 -1 -2 -1 -2 -1 -0 2 5 10 6 3 8 12 5 -2 -0 3 3 2 7 9 7 4 4 7 7 6 6 4 2 1 1 -1 -2 -3 -4 -4 -4 -3 -2 -2 -2 -1 -1 -0 1 2 2 3 3 3 2 2 1 1 1 1 1 2 3 3 3 2 2 1 1 1
2 2 2 2 1 -0 -1 -1 1 2 3 -1 0 3 6 1 1 3 3 -1 -2 -1 -2 1 1 1 0 6 6 4 4 9 7 2 -3 -0 3 6 7 10 8 5 4 6 6 5 6 3 1 0 1 0 -1 -2 -3 -3 -2 -2 -2 -2 -2 -2 -1 -1 0 1 2 2 2 2 1 1 1 0 0 0 1 1 2 3 3 3 2 1 1 1
1 -1 -6 -2 1 3 -1 -3 -1 2 2 0 1 3 1 -1 1 3 1 -0 1 3 -0 3 3 1 -3 6 9 6 1 9 9 3 -10 -3 4 8 4 8 9 9 6 6 6 7 8 4 1 -0 1 -0 -1 -2 -2 -2 -1 -1 -1 -1 -1 -2 -2 -1 -1 -0 0 0 0 -0 -0 -1 -1 -1 -1 -0 0 1 1 2 2 2 2 2 1 1
-0 -3 -9 -5 0 3 1 -1 -1 -0 -0 1 2 1 -5 -3 0 2 -2 -0 3 5 2 3 1 -0 -0 8 9 5 1 8 8 0 -12 -2 4 4 -5 5 11 12 7 6 7 9 12 8 4 1 1 0 -1 -2 -3 -3 -2 -2 -2 -2 -2 -2 -2 -2 -2 -2 -1 -1 -2 -2 -3 -3 -3 -2 -2 -1 -0 0 1 1 2 2 2 2 1 1
-2 -3 -5 -4 -1 0 -0 -0 -1 -2 -3 1 2 0 -6 -3 1 3 -2 -1 2 4 1 -1 -2 -0 3 7 7 5 3 3 1 -3 -6 1 -0 -6 -12 5 14 14 5 4 6 9 12 10 8 5 4 4 1 -1 -4 -4 -4 -4 -4 -4 -3 -3 -3 -3 -3 -3 -3 -3 -3 -4 -4 -4 -4 -4 -3 -2 -1 -0 0 1 2 2 2 1 1 1
-3 -2 -3 -3 -3 -2 -2 -1 -1 -2 -4 -2 -1 -2 -5 -3 -0 1 -1 -1 -0 0 -2 -4 -1 2 3 2 4 7 4 -4 -5 -2 0 -2 -7 -10 -10 2 11 13 5 -0 2 7 11 9 8 7 8 8 6 2 -1 -2 -4 -5 -6 -5 -5 -5 -4 -4 -4 -3 -3 -3 -4 -4 -4 -4 -4 -4 -4 -3 -2 -1 0 1 1 1 1 1 2 2
-1 -1 -2 -3 -3 -2 -2 -2 -2 -3 -3 -3 -4 -4 -5 -4 -3 -2 -3 -3 -3 -4 -6 -4 -1 2 -0 -2 3 7 1 -9 -7 0 3 -5 -10 -10 -8 -4 4 9 5 -6 -6 2 12 9 5 5 9 11 9 5 4 2 -0 -3 -4 -5 -5 -5 -5 -4 -4 -4 -3 -3 -3 -4 -4 -4 -4 -5 -4 -4 -2 -1 -0 1 1 1 1 2 2 3
0 -0 -1 -1 -2 -2 -2 -2 -2 -3 -4 -4 -4 -4 -4 -3 -2 -2 -2 -4 -6 -7 -6 -5 -3 -2 -4 -1 4 5 -3 -8 -6 -1 -1 -4 -5 -5 -9 -10 -2 6 4 -11 -11 -1 12 8 3 2 8 10 8 5 6 6 4 1 -1 -2 -4 -5 -5 -5 -4 -4 -3 -3 -3 -4 -4 -5 -5 -5 -5 -4 -3 -2 -0 1 1 1 1 2 3 4
-1 -2 -2 -2 -2 -2 -2 -3 -3 -4 -5 -5 -6 -5 -4 -2 -1 -2 -3 -3 -4 -5 -7 -5 -4 -3 -6 -1 1 1 -2 -2 -4 -6 -8 -4 -2 -2 -8 -8 -3 1 -3 -10 -9 -1 8 7 4 2 7 8 5 3 5 6 4 1 1 -0 -2 -4 -5 -5 -5 -4 -4 -4 -4 -4 -5 -6 -6 -6 -6 -5 -4 -2 -0 0 1 1 1 2 4 5
-3 -3 -3 -3 -3 -3 -3 -3 -3 -4 -4 -5 -6 -5 -4 -2 -3 -5 -6 1 1 -4 -12 -4 0 -1 -8 -3 1 2 1 -0 -4 -7 -8 -5 -6 -7 -5 1 -1 -5 -8 -4 -1 0 3 6 6 5 7 6 4 3 6 4 2 1 1 -0 -2 -3 -4 -5 -5 -5 -5 -5 -5 -5 -5 -6 -7 -7 -7 -6 -4 -3 -1 -0 0 0 0 2 4 5
-4 -4 -5 -4 -3 -3 -4 -3 -3 -3 -4 -4 -5 -5 -4 -2 -4 -7 -7 3 3 -4 -13 -2 2 -0 -8 -4 1 4 3 -1 -3 -4 -3 -8 -13 -12 4 8 -3 -13 -7 4 2 -2 1 6 7 6 5 3 4 6 7 4 3 3 2 -0 -1 -2 -3 -4 -6 -6 -6 -6 -6 -6 -6 -6 -6 -7 -6 -6 -5 -4 -3 -2 -1 -1 -1 1 2 3
-6 -6 -8 -6 -5 -5 -6 -5 -4 -4 -4 -5 -5 -5 -4 -3 -4 -6 -6 0 -0 -4 -9 -2 0 -0 -5 -4 -1 1 2 3 2 -0 -4 -12 -15 -8 15 7 -9 -16 3 7 -2 -10 -0 10 11 6 -2 -1 4 8 7 4 4 5 4 1 -0 -1 -1 -4 -5 -7 -7 -7 -7 -7 -7 -6 -6 -6 -6 -6 -6 -5 -5 -4 -4 -3 -3 -2 -0 1
-6 -6 -8 -8 -7 -7 -8 -7 -6 -6 -6 -6 -6 -6 -5 -5 -5 -6 -5 -3 -3 -5 -6 -4 -2 -1 -2 -4 -5 -4 -0 6 6 1 -6 -15 -12 -0 20 2 -12 -12 12 8 -7 -16 -5 14 16 8 -7 -5 2 8 7 3 3 4 4 2 1 0 -0 -1 -3 -5 -6 -6 -7 -7 -7 -7 -6 -6 -6 -6 -6 -6 -6 -6 -6 -6 -5 -4 -2 0
-4 -4 -5 -5 -6 -6 -7 -7 -7 -7 -6 -6 -6 -6 -6 -6 -6 -6 -5 -5 -5 -5 -6 -5 -4 -2 -2 -3 -6 -6 -2 3 4 1 -5 -13 -10 1 17 0 -10 -8 11 7 -6 -16 -10 8 16 13 0 -4 -1 4 7 3 1 1 3 3 2 0 1 2 0 -2 -5 -4 -4 -5 -6 -6 -6 -6 -6 -6 -6 -7 -7 -7 -7 -7 -7 -6 -4 -2
-3 -3 -3 -3 -4 -4 -4 -5 -5 -6 -5 -5 -6 -6 -6 -6 -6 -6 -6 -5 -5 -5 -6 -6 -5 -4 -3 -3 -4 -5 -3 -1 -1 -1 -3 -9 -8 -1 9 1 -6 -6 5 4 -2 -8 -8 -0 8 11 6 1 2 4 5 2 -0 -1 1 2 1 -0 2 5 3 -2 -5 -2 -0 -1 -5 -5 -5 -4 -5 -5 -5 -6 -6 -7 -8 -8 -8 -7 -5 -4
-2 -2 -2 -2 -2 -3 -3 -4 -4 -4 -4 -4 -4 -4 -5 -5 -5 -5 -5 -5 -5 -5 -5 -5 -5 -5 -4 -3 -3 -3 -2 -4 -4 -5 -5 -7 -6 -2 4 1 -2 -3 -0 -0 -1 -3 -6 -4 -0 3 2 4 6 6 2 -0 -1 -0 1 1 -1 -1 2 6 3 -2 -5 1 3 1 -4 -4 -3 -2 -4 -5 -5 -4 -5 -5 -6 -7 -8 -7 -7 -6
-2 -2 -2 -2 -3 -3 -2 -3 -4 -4 -4 -4 -4 -4 -4 -4 -4 -4 -4 -5 -5 -4 -4 -4 -4 -4 -4 -3 -3 -2 -1 -2 -4 -7 -8 -8 -6 -4 -0 -0 -0 -2 -5 -5 -2 -2 -7 -6 -4 -2 -5 -2 3 6 4 -0 -2 -1 1 0 -1 -2 0 4 2 -2 -4 1 3 1 -3 -1 -0 -1 -4 -4 -4 -3 -4 -4 -4 -5 -5 -6 -6 -6
-3 -3 -3 -3 -3 -3 -2 -2 -3 -4 -4 -4 -4 -4 -4 -4 -4 -4 -4 -4 -4 -4 -4 -4 -4 -3 -4 -3 -3 -2 -0 0 -2 -5 -8 -7 -7 -6 -4 -1 -0 -2 -8 -7 -4 -3 -7 -8 -5 -3 -6 -7 -4 2 6 2 -1 -3 -2 0 1 -1 -2 1 1 -1 -4 -1 0 0 -1 1 0 -1 -3 -3 -2 -2 -4 -3 -2 -2 -2 -4 -4 -4
-3 -3 -3 -2 -2 -2 -2 -1 -1 -2 -3 -3 -3 -3 -4 -4 -4 -4 -4 -4 -4 -4 -4 -3 -3 -3 -4 -4 -4 -3 -1 1 0 -1 -3 -4 -5 -5 -5 -2 -1 -2 -6 -7 -6 -5 -7 -8 -7 -5 -6 -8 -6 -3 0 0 -1 -3 -4 1 2 0 -4 -1 0 -1 -4 -3 -2 0 1 1 -1 -2 -2 -1 -1 -2 -4 -2 -1 -1 -1 -2 -2 -3
-3 -3 -3 -2 -2 -2 -1 -1 -1 -1 -1 -2 -2 -2 -2 -3 -3 -3 -4 -4 -4 -4 -3 -3 -2 -3 -4 -5 -6 -5 -3 -1 1 1 1 -0 -2 -3 -3 -1 -0 -0 -4 -5 -5 -5 -6 -7 -7 -6 -7 -7 -6 -5 -4 -3 -3 -3 -1 2 2 -1 -4 -1 0 -1 -4 -4 -2 0 1 -1 -2 -3 -2 -1 -1 -2 -3 -3 -1 -0 -0 -2 -2 -2
-2 -2 -3 -2 -2 -2 -1 -1 -1 -1 -1 -1 -1 -1 -1 -1 -1 -1 -2 -3 -3 -2 -2 -1 -1 -2 -3 -5 -6 -6 -4 -2 -0 1 1 1 0 -0 -1 -0 1 1 -1 -3 -4 -5 -6 -6 -6 -6 -6 -6 -6 -5 -4 -4 -4 -3 -0 1 0 -1 -0 1 -0 -2 -3 -2 -1 -0 -1 -1 -2 -2 -3 -2 -1 -1 -4 -4 -1 0 -0 -3 -3 -2
-2 -2 -2 -3 -2 -2 -1 -1 -1 -0 -0 -1 -1 -1 -1 -0 -0 -0 -1 -1 -1 -1 -0 0 0 -0 -2 -4 -5 -5 -4 -2 -1 -0 0 0 0 -0 -1 -1 -0 0 -0 -2 -3 -4 -5 -6 -6 -5 -5 -5 -4 -2 -1 -2 -2 -3 -2 -2 -1 1 4 1 -2 -4 -2 -1 -1 -1 -1 -0 -1 -2 -4 -3 -2 -2 -5 -3 -1 0 -1 -3 -3 -2
-2 -2 -2 -3 -3 -3 -2 -2 -1 -1 -0 -0 -1 -1 -1 -0 0 1 0 -0 -1 -1 -0 0 0 0 -1 -2 -3 -3 -2 -1 -1 -1 -1 -1 -1 -1 -2 -2 -2 -2 -2 -3 -3 -4 -5 -6 -6 -5 -5 -5 -4 -2 1 2 1 -1 -4 -4 -1 3 5 1 -2 -3 -2 -2 -2 -1 -1 -0 -1 -2 -4 -3 -3 -4 -4 -2 -1 -2 -2 -2 -2 -2
-2 -2 -2 -1 -1 -1 -2 -2 -1 -1 -1 -1 -1 -1 -1 -0 0 1 2 1 1 0 -0 -0 0 0 -0 -2 -3 -3 -2 -1 -1 -1 -1 -1 -2 -3 -3 -4 -4 -4 -5 -5 -4 -4 -4 -6 -6 -6 -5 -5 -6 -4 -1 2 3 1 -2 -3 -1 1 2 2 2 -0 -4 -3 -1 -0 -1 -2 -2 -2 -2 -2 -3 -4 -2 -3 -4 -4 -2 -2 -2 -3
-2 -1 -1 -1 -0 -0 -0 -1 -1 -1 -2 -2 -2 -2 -2 -1 -0 1 2 2 2 1 1 0 0 0 1 1 -1 -2 -3 -3 -2 -2 -2 -2 -3 -4 -4 -5 -5 -5 -6 -6 -5 -3 -3 -4 -4 -4 -4 -5 -6 -5 -2 0 1 1 0 -1 -2 -2 -2 4 5 2 -4 -2 -1 -0 -3 -3 -2 -2 -2 -2 -2 -2 -2 -4 -5 -4 -2 -2 -3 -4
-1 -1 -1 -1 -1 -1 -1 -1 -1 -1 -1 -2 -2 -3 -3 -2 -1 -0 1 2 2 1 1 1 1 1 1 1 1 -0 -1 -2 -3 -4 -3 -3 -4 -4 -5 -5 -5 -5 -6 -6 -5 -4 -3 -3 -2 -1 -2 -3 -4 -4 -3 -1 -0 0 0 -1 -3 -4 -3 4 6 4 -0 0 0 -1 -3 -3 -3 -3 -2 -2 -1 -1 -2 -4 -4 -3 -3 -3 -4 -4
-2 -2 -2 -2 -2 -2 -1 -1 -1 -1 -1 -2 -2 -3 -3 -3 -2 -1 0 1 1 1 1 0 1 1 2 1 1 0 0 -1 -3 -5 -5 -5 -5 -5 -5 -6 -6 -6 -7 -6 -6 -4 -3 -2 -1 -1 -2 -2 -2 -1 -1 -1 -1 -1 0 -0 -3 -4 -3 1 3 3 3 3 2 0 -1 -2 -4 -4 -3 -1 0 0 -1 -2 -2 -2 -3 -3 -4 -4
-3 -3 -2 -2 -2 -2 -2 -2 -1 -1 -1 -2 -3 -3 -3 -3 -2 -1 -0 -0 0 1 0 -0 -0 1 2 2 1 1 1 0 -2 -4 -6 -6 -6 -6 -6 -7 -7 -6 -6 -6 -6 -5 -5 -4 -3 -3 -4 -4 -4 -2 -1 -1 -2 -2 -1 -0 -1 -2 -2 -0 1 2 2 2 2 2 2 -1 -4 -5 -4 -1 -0 0 -0 -1 -1 -1 -1 -2 -3 -4
-3 -2 -2 -2 -2 -2 -2 -2 -2 -2 -2 -2 -3 -3 -3 -3 -2 -1 -0 -1 -0 -0 -0 -1 -1 -1 0 1 1 1 2 2 1 -1 -3 -5 -5 -6 -6 -6 -6 -6 -5 -4 -5 -6 -7 -7 -6 -6 -6 -6 -6 -5 -3 -3 -3 -3 -2 -1 -1 -1 -1 0 1 0 -0 -0 0 1 1 -1 -3 -4 -3 -2 -1 -1 -0 -0 -0 -1 -0 -1 -2 -3
-2 -1 -1 -1 -1 -1 -2 -3 -2 -2 -2 -2 -3 -3 -3 -3 -2 -1 -0 -1 -1 -1 -1 -1 -1 -1 -1 -1 -0 -0 1 2 1 1 -1 -2 -3 -4 -4 -4 -4 -4 -4 -4 -4 -4 -4 -4 -3 -4 -5 -6 -6 -6 -4 -3 -3 -3 -3 -3 -2 -2 -2 -1 -0 -1 -2 -2 -1 -1 -0 -1 -1 -2 -1 -2 -2 -1 -0 -0 -0 -0 -0 -1 -1 -2
-1 -1 -1 -1 -1 -1 -2 -3 -3 -3 -2 -2 -2 -2 -3 -3 -2 -1 -0 -0 -1 -1 -1 -1 -1 -1 -1 -1 -1 -1 -0 -0 0 -0 -1 -2 -2 -1 -1 -2 -3 -3 -3 -2 -1 -0 1 3 4 3 1 -3 -5 -6 -6 -3 -2 -3 -4 -4 -4 -4 -4 -3 -2 -2 -2 -2 -2 -2 -1 -1 -1 -1 -1 -2 -2 -1 -0 -1 -1 -1 -0 -1 -1 -2
-2 -2 -1 -1 -1 -2 -2 -3 -3 -3 -3 -2 -2 -2 -2 -2 -2 -2 -1 -1 -1 -1 -1 -1 -1 -1 -0 -0 -0 -0 -0 -1 -1 -2 -2 -2 -1 -1 -0 -1 -1 -1 -0 2 4 5 7 7 7 6 3 -1 -3 -5 -5 -4 -4 -3 -3 -4 -4 -5 -4 -3 -2 -1 -1 -2 -2 -2 -2 -2 -1 -1 -2 -2 -3 -2 -1 -1 -0 -0 -0 -1 -1 -2
-2 -2 -2 -2 -2 -2 -3 -3 -4 -3 -3 -2 -2 -1 -1 -1 -2 -2 -2 -2 -2 -1 -1 -2 -1 -1 -0 0 1 1 0 -1 -2 -2 -2 -2 -2 -1 -1 -1 -1 0 2 5 6 8 9 9 8 6 3 -2 -4 -5 -3 -4 -4 -4 -3 -3 -3 -2 -2 -2 -1 -1 -1 -2 -2 -2 -2 -2 -2 -2 -3 -4 -4 -3 -1 0 1 1 1 -0 -2 -3
Height
5661 5659 5658 5657 5656 5654 5652 5650 5650 5649 5648 5646 5646 5645 5645 5644 5643 5642 5641 5641 5640 5639 5638 5638 5637 5637 5636 5636 5635 5635 5635 5634 5634 5634 5633 5633 5633 5633 5633 5633 5633 5633 5633 5633 5633 5634 5635 5635 5635 5634 5634 5633 5633 5634 5634 5635 5636 5636 5637 5637 5637 5637 5637 5638 5639 5639 5639 5638 5638 5640 5641 5641 5642 5643 5644 5645 5646 5647 5648 5648 5649 5649 5650 5650 5651 5651
5655 5653 5651 5651 5650 5649 5646 5644 5643 5643 5642 5640 5639 5639 5638 5637 5636 5635 5635 5634 5633 5632 5632 5631 5631 5630 5630 5629 5629 5628 5628 5627 5627 5627 5627 5626 5626 5626 5626 5626 5626 5626 5626 5627 5627 5627 5628 5628 5627 5627 5627 5627 5627 5628 5628 5629 5630 5630 5631 5631 5631 5631 5630 5631 5631 5632 5631 5631 5632 5633 5635 5636 5637 5638 5639 5640 5641 5642 5643 5643 5644 5645 5645 5646 5646 5647
5649 5647 5645 5644 5643 5642 5640 5637 5636 5636 5635 5633 5632 5631 5631 5631 5630 5628 5627 5627 5626 5626 5625 5625 5624 5624 5623 5622 5622 5622 5621 5621 5620 5620 5620 5620 5620 5620 5619 5619 5619 5619 5620 5620 5621 5621 5621 5621 5621 5621 5621 5621 5621 5621 5622 5622 5623 5624 5624 5624 5624 5624 5624 5625 5625 5625 5625 5625 5626 5627 5629 5630 5631 5633 5634 5635 5636 5637 5638 5639 5639 5640 5640 5641 5641 5642
5642 5640 5638 5637 5636 5635 5632 5631 5630 5629 5627 5626 5625 5624 5624 5623 5622 5621 5621 5620 5619 5618 5618 5617 5617 5617 5616 5616 5615 5615 5614 5614 5614 5613 5613 5613 5613 5613 5613 5612 5612 5612 5613 5613 5613 5614 5614 5614 5614 5614 5614 5614 5615 5615 5616 5616 5616 5617 5617 5618 5618 5618 5618 5619 5619 5619 5619 5619 5620 5621 5622 5624 5625 5626 5628 5629 5631 5632 5632 5633 5634 5635 5635 5636 5636 5636
5634 5632 5631 5629 5629 5627 5625 5624 5623 5621 5620 5619 5618 5617 5616 5616 5615 5614 5614 5613 5612 5611 5611 5610 5610 5610 5609 5609 5608 5608 5607 5607 5607 5606 5606 5606 5606 5606 5606 5605 5606 5606 5606 5606 5606 5606 5607 5607 5607 5607 5608 5608 5608 5609 5609 5609 5610 5610 5611 5611 5611 5611 5612 5613 5613 5614 5614 5614 5614 5615 5616 5617 5618 5620 5621 5623 5624 5626 5626 5627 5628 5629 5629 5630 5631 5631
5626 5625 5623 5622 5621 5620 5618 5617 5616 5615 5613 5612 5611 5610 5609 5608 5607 5607 5606 5606 5605 5604 5604 5603 5603 5602 5602 5601 5601 5601 5600 5600 5600 5599 5599 5598 5598 5598 5598 5598 5598 5598 5598 5599 5599 5599 5600 5600 5600 5600 5601 5601 5602 5602 5602 5603 5603 5603 5604 5604 5605 5605 5606 5606 5606 5607 5608 5608 5608 5609 5610 5610 5611 5613 5614 5616 5617 5619 5620 5621 5622 5623 5624 5624 5625 5626
5618 5617 5616 5615 5613 5612 5611 5610 5609 5608 5607 5606 5605 5603 5602 5601 5600 5599 5598 5598 5597 5597 5596 5596 5596 5595 5595 5594 5594 5593 5593 5593 5592 5592 5591 5591 5591 5590 5590 5590 5591 5591 5591 5591 5591 5591 5592 5592 5592 5593 5593 5594 5595 5595 5596 5596 5596 5596 5597 5597 5598 5599 5599 5599 5600 5601 5601 5601 5602 5603 5604 5604 5605 5606 5607 5609 5611 5612 5614 5615 5616 5617 5618 5619 5619 5620
5611 5610 5609 5608 5607 5606 5604 5603 5602 5601 5600 5599 5598 5596 5596 5594 5593 5592 5591 5590 5590 5590 5589 5589 5589 5588 5587 5587 5586 5586 5586 5586 5585 5585 5584 5583 5583 5583 5583 5583 5583 5583 5583 5584 5584 5584 5584 5585 5585 5586 5586 5587 5587 5588 5589 5589 5589 5590 5590 5591 5591 5592 5592 5592 5593 5594 5594 5595 5596 5597 5598 5599 5600 5601 5602 5603 5604 5606 5607 5609 5610 5611 5612 5613 5614 5614
5604 5603 5602 5601 5601 5599 5598 5596 5595 5594 5593 5592 5590 5589 5589 5587 5586 5585 5585 5584 5583 5582 5582 5582 5582 5581 5581 5580 5579 5579 5579 5578 5578 5577 5577 5576 5576 5576 5576 5576 5576 5576 5576 5576 5576 5577 5577 5577 5577 5578 5579 5579 5580 5580 5581 5581 5582 5582 5583 5583 5584 5584 5585 5585 5586 5586 5587 5588 5589 5590 5591 5593 5594 5595 5596 5597 5599 5600 5601 5603 5604 5605 5606 5607 5608 5609
5598 5596 5595 5594 5594 5593 5592 5590 5588 5587 5587 5585 5583 5581 5581 5581 5580 5579 5579 5578 5577 5576 5576 5575 5575 5574 5574 5573 5573 5572 5571 5571 5571 5570 5570 5569 5569 5568 5568 5568 5568 5569 5569 5569 5569 5570 5570 5570 5570 5570 5571 5571 5572 5572 5573 5573 5574 5575 5575 5576 5576 5576 5577 5577 5578 5579 5580 5581 5582 5583 5584 5586 5587 5589 5590 5591 5593 5594 5595 5596 5598 5599 5600 5601 5602 5603
5591 5590 5589 5588 5587 5586 5585 5583 5581 5581 5580 5579 5577 5575 5574 5574 5573 5573 5573 5572 5572 5571 5570 5569 5568 5568 5567 5567 5566 5565 5565 5564 5563 5563 5562 5562 5562 5561 5561 5561 5561 5562 5562 5562 5562 5562 5562 5562 5563 5563 5563 5563 5564 5564 5565 5565 5566 5566 5567 5567 5568 5568 5569 5570 5571 5571 5572 5573 5574 5576 5577 5579 5580 5582 5584 5585 5586 5588 5589 5590 5591 5593 5594 5595 5596 5597
5585 5584 5583 5582 5581 5579 5578 5577 5576 5574 5573 5572 5571 5569 5568 5567 5567 5567 5566 5565 5565 5566 5565 5563 5562 5562 5561 5560 5559 5559 5558 5557 5556 5555 5555 5555 5554 5554 5554 5554 5555 5555 5555 5555 5555 5555 5555 5555 5555 5555 5556 5556 5556 5556 5557 5557 5558 5559 5560 5560 5560 5561 5561 5562 5563 5564 5565 5566 5567 5569 5570 5572 5574 5575 5577 5578 5580 5581 5582 5584 5585 5586 5587 5589 5590 5591
5579 5578 5577 5576 5575 5573 5572 5571 5570 5568 5567 5566 5565 5563 5561 5561 5561 5561 5560 5558 5558 5559 5559 5558 5556 5556 5555 5554 5553 5552 5552 5551 5550 5549 5549 5548 5547 5547 5547 5547 5547 5547 5548 5548 5548 5548 5548 5548 5548 5547 5548 5548 5548 5549 5549 5550 5550 5551 5552 5552 5553 5554 5554 5555 5556 5557 5558 5559 5561 5562 5563 5565 5566 5568 5570 5571 5573 5574 5576 5577 5578 5580 5581 5582 5583 5585
5573 5572 5571 5570 5568 5567 5566 5565 5563 5561 5560 5559 5558 5557 5556 5555 5554 5554 5553 5552 5551 5551 5552 5551 5550 5549 5549 5548 5547 5546 5545 5544 5543 5543 5542 5541 5541 5540 5540 5540 5539 5539 5540 5540 5540 5540 5540 5540 5540 5540 5540 5540 5541 5541 5541 5542 5542 5543 5544 5545 5545 5546 5547 5548 5549 5550 5551 5552 5553 5555 5556 5557 5559 5561 5562 5564 5565 5567 5568 5570 5571 5573 5574 5576 5577 5578
5567 5566 5565 5563 5562 5561 5559 5558 5556 5555 5553 5552 5551 5550 5549 5548 5547 5546 5546 5544 5544 5544 5544 5544 5543 5542 5542 5541 5541 5539 5538 5537 5536 5536 5536 5535 5534 5534 5533 5533 5532 5532 5533 5533 5532 5532 5532 5532 5531 5531 5531 5532 5532 5532 5533 5534 5534 5535 5536 5536 5537 5538 5539 5540 5541 5542 5543 5544 5546 5547 5548 5550 5551 5553 5555 5556 5558 5560 5561 5563 5565 5566 5567 5569 5570 5571
5561 5560 5558 5557 5556 5554 5553 5551 5550 5548 5546 5545 5544 5543 5541 5540 5539 5539 5538 5537 5536 5536 5536 5536 5535 5535 5535 5535 5534 5532 5531 5529 5528 5528 5529 5528 5527 5526 5526 5526 5525 5525 5526 5526 5525 5524 5524 5524 5523 5523 5523 5524 5524 5524 5525 5525 5526 5527 5528 5528 5529 5530 5531 5532 5533 5534 5536 5536 5538 5539 5541 5542 5543 5545 5547 5548 5550 5552 5554 5556 5557 5559 5561 5562 5563 5565
5555 5554 5552 5551 5549 5547 5546 5545 5543 5541 5539 5538 5536 5535 5534 5533 5531 5531 5530 5529 5528 5528 5527 5527 5527 5527 5527 5527 5526 5525 5522 5521 5519 5519 5520 5521 5520 5519 5519 5519 5518 5517 5518 5519 5518 5517 5516 5516 5515 5515 5515 5515 5515 5516 5516 5517 5517 5518 5519 5520 5521 5522 5523 5524 5525 5526 5527 5529 5530 5531 5532 5534 5536 5537 5539 5541 5542 5544 5546 5548 5550 5552 5554 5555 5556 5558
5549 5547 5546 5544 5542 5540 5539 5537 5536 5534 5532 5530 5529 5527 5526 5525 5524 5523 5522 5521 5520 5519 5519 5518 5519 5518 5518 5518 5517 5516 5514 5512 5510 5509 5511 5512 5512 5511 5511 5511 5510 5509 5510 5511 5511 5509 5508 5508 5507 5507 5507 5507 5507 5507 5507 5508 5509 5510 5511 5511 5513 5514 5515 5516 5517 5518 5520 5521 5522 5523 5525 5526 5527 5529 5531 5533 5535 5536 5539 5541 5543 5545 5546 5548 5550 5551
5542 5540 5539 5536 5534 5532 5531 5529 5527 5526 5524 5522 5521 5520 5518 5517 5516 5515 5513 5512 5511 5510 5510 5509 5509 5509 5509 5509 5508 5506 5505 5503 5501 5500 5500 5502 5503 5502 5502 5502 5501 5501 5501 5502 5501 5501 5500 5499 5499 5499 5499 5498 5498 5498 5499 5500 5500 5501 5502 5503 5504 5505 5506 5507 5509 5510 5511 5512 5514 5515 5516 5518 5519 5521 5523 5525 5526 5529 5531 5533 5535 5537 5539 5541 5543 5544
5534 5532 5530 5528 5526 5524 5522 5521 5519 5518 5515 5513 5512 5511 5510 5508 5507 5506 5505 5503 5502 5501 5501 5500 5500 5499 5499 5499 5498 5496 5494 5493 5491 5490 5490 5491 5493 5494 5493 5492 5492 5492 5492 5492 5492 5491 5491 5490 5489 5489 5490 5490 5489 5490 5490 5491 5492 5492 5493 5494 5495 5496 5497 5499 5500 5501 5502 5504 5505 5506 5508 5509 5511 5512 5514 5516 5518 5520 5522 5525 5527 5530 5532 5534 5536 5537
5526 5524 5522 5521 5519 5516 5514 5512 5511 5509 5506 5504 5503 5501 5500 5499 5498 5496 5495 5494 5493 5492 5491 5491 5490 5490 5489 5489 5488 5486 5484 5483 5481 5480 5478 5481 5483 5484 5482 5482 5483 5483 5482 5483 5483 5483 5482 5481 5480 5480 5480 5480 5480 5480 5481 5482 5483 5483 5484 5485 5486 5487 5488 5490 5491 5492 5493 5495 5496 5497 5498 5500 5501 5503 5505 5507 5510 5512 5514 5516 5519 5521 5524 5526 5528 5530
5519 5516 5514 5512 5510 5508 5506 5504 5502 5500 5497 5496 5494 5492 5490 5489 5488 5487 5486 5485 5484 5483 5481 5481 5480 5480 5479 5479 5478 5476 5473 5472 5471 5469 5467 5469 5471 5472 5471 5472 5473 5473 5472 5473 5473 5474 5473 5472 5471 5471 5471 5471 5471 5471 5471 5471 5472 5473 5474 5475 5476 5477 5479 5480 5481 5482 5484 5485 5486 5487 5489 5490 5492 5494 5496 5498 5501 5503 5505 5507 5510 5512 5515 5517 5520 5522
5511 5508 5506 5503 5501 5500 5497 5495 5492 5490 5488 5486 5485 5483 5481 5480 5479 5478 5476 5475 5474 5473 5471 5470 5470 5469 5469 5468 5467 5465 5463 5461 5459 5457 5456 5458 5459 5460 5460 5461 5462 5462 5461 5461 5462 5463 5463 5462 5461 5461 5461 5461 5461 5461 5461 5461 5462 5463 5464 5465 5466 5467 5468 5470 5471 5472 5474 5475 5476 5477 5479 5481 5482 5484 5486 5489 5491 5493 5496 5498 5501 5503 5506 5508 5511 5514
5502 5500 5497 5495 5493 5491 5488 5486 5484 5481 5479 5477 5475 5473 5471 5470 5469 5467 5466 5464 5462 5461 5460 5459 5459 5459 5458 5457 5456 5454 5452 5448 5446 5446 5446 5446 5447 5448 5449 5450 5451 5451 5450 5449 5450 5451 5452 5451 5451 5451 5452 5452 5451 5451 5451 5451 5451 5452 5452 5453 5455 5456 5457 5459 5461 5462 5463 5465 5466 5467 5469 5471 5472 5474 5476 5479 5481 5484 5486 5489 5491 5494 5496 5499 5502 5505
5494 5492 5489 5486 5484 5481 5479 5477 5474 5472 5469 5467 5465 5463 5461 5460 5458 5456 5454 5452 5451 5449 5448 5447 5447 5447 5446 5445 5444 5443 5440 5435 5434 5434 5435 5434 5434 5436 5437 5437 5438 5438 5438 5436 5437 5439 5441 5441 5440 5440 5441 5441 5441 5440 5440 5441 5441 5441 5441 5442 5444 5445 5446 5448 5450 5451 5453 5454 5456 5457 5459 5461 5462 5464 5466 5469 5471 5474 5476 5479 5481 5484 5487 5490 5493 5496
5486 5483 5481 5478 5475 5473 5470 5468 5465 5462 5459 5457 5455 5453 5451 5450 5448 5446 5444 5442 5440 5438 5437 5436 5436 5435 5434 5433 5432 5431 5427 5423 5421 5421 5421 5421 5421 5423 5424 5423 5424 5425 5425 5423 5424 5426 5430 5430 5428 5428 5429 5430 5429 5428 5428 5429 5430 5430 5430 5431 5432 5433 5435 5436 5438 5440 5441 5443 5445 5446 5448 5450 5452 5454 5456 5459 5461 5464 5466 5469 5472 5474 5477 5480 5483 5486
5477 5474 5471 5469 5466 5464 5461 5458 5456 5453 5450 5447 5445 5443 5441 5440 5439 5437 5435 5431 5429 5428 5427 5426 5425 5423 5423 5422 5421 5419 5416 5412 5410 5409 5407 5407 5409 5411 5411 5409 5409 5411 5412 5411 5411 5414 5417 5417 5416 5416 5416 5417 5416 5415 5416 5417 5417 5417 5418 5419 5420 5421 5423 5424 5426 5428 5430 5431 5433 5435 5437 5439 5441 5443 5446 5448 5451 5454 5456 5459 5461 5464 5467 5470 5473 5476
5469 5466 5463 5461 5458 5456 5453 5450 5447 5445 5442 5439 5437 5434 5432 5431 5430 5429 5426 5422 5420 5420 5419 5416 5414 5413 5413 5412 5410 5408 5406 5403 5400 5396 5393 5395 5399 5401 5399 5396 5396 5399 5400 5399 5400 5401 5404 5405 5404 5403 5403 5403 5403 5403 5403 5403 5404 5404 5405 5406 5407 5408 5410 5411 5413 5415 5417 5419 5421 5423 5425 5427 5430 5432 5435 5437 5440 5443 5446 5448 5451 5453 5456 5459 5463 5466
5461 5459 5456 5453 5451 5448 5446 5443 5441 5438 5435 5432 5430 5427 5425 5423 5422 5421 5418 5414 5413 5412 5411 5408 5406 5405 5405 5403 5401 5399 5397 5395 5391 5386 5383 5386 5390 5391 5386 5384 5386 5388 5388 5387 5388 5390 5391 5392 5391 5390 5390 5390 5390 5390 5391 5391 5390 5390 5391 5392 5393 5394 5396 5397 5399 5401 5403 5405 5408 5410 5412 5415 5418 5420 5423 5426 5429 5431 5434 5437 5440 5442 5445 5448 5451 5455
5455 5452 5450 5447 5444 5442 5440 5437 5434 5431 5429 5426 5424 5421 5418 5416 5415 5414 5411 5408 5406 5406 5404 5401 5399 5397 5397 5396 5394 5392 5390 5386 5381 5378 5377 5380 5382 5381 5376 5376 5378 5378 5375 5375 5377 5380 5381 5380 5379 5378 5378 5378 5377 5378 5378 5378 5378 5377 5378 5378 5379 5380 5381 5383 5384 5386 5389 5391 5394 5396 5399 5402 5405 5408 5411 5414 5417 5420 5422 5425 5428 5431 5433 5437 5440 5444
5450 5447 5445 5442 5439 5436 5434 5431 5429 5426 5424 5421 5418 5416 5413 5411 5409 5407 5405 5403 5401 5400 5398 5396 5393 5391 5390 5389 5389 5387 5384 5379 5375 5372 5372 5375 5375 5372 5369 5370 5371 5369 5365 5365 5368 5372 5372 5370 5369 5369 5369 5368 5367 5366 5366 5366 5366 5366 5365 5366 5366 5368 5368 5369 5370 5372 5375 5377 5379 5382 5385 5388 5391 5394 5397 5401 5404 5407 5410 5413 5416 5418 5421 5425 5429 5432
5447 5444 5441 5438 5435 5432 5429 5427 5424 5421 5419 5416 5413 5411 5408 5406 5404 5401 5399 5397 5396 5394 5393 5391 5389 5386 5385 5384 5383 5381 5379 5374 5370 5368 5369 5371 5370 5367 5364 5365 5365 5363 5359 5358 5361 5363 5364 5362 5361 5361 5361 5360 5359 5357 5356 5356 5356 5355 5354 5354 5355 5356 5357 5356 5357 5359 5361 5363 5365 5367 5371 5374 5377 5380 5383 5386 5390 5393 5396 5400 5403 5406 5409 5413 5416 5421
5444 5441 5438 5435 5431 5429 5426 5423 5420 5417 5414 5411 5409 5406 5404 5401 5399 5396 5395 5392 5391 5389 5388 5386 5384 5382 5380 5379 5378 5376 5373 5370 5367 5365 5365 5366 5365 5363 5361 5361 5360 5358 5355 5354 5354 5356 5356 5356 5355 5354 5355 5355 5353 5351 5348 5347 5347 5346 5345 5345 5346 5346 5346 5346 5346 5348 5350 5351 5352 5354 5357 5360 5362 5365 5368 5371 5375 5379 5382 5386 5389 5392 5396 5400 5404 5408
5441 5438 5435 5431 5428 5425 5422 5419 5416 5413 5410 5407 5405 5402 5399 5397 5394 5392 5390 5387 5386 5384 5383 5381 5380 5378 5376 5374 5373 5371 5369 5366 5363 5361 5361 5361 5361 5360 5358 5357 5356 5354 5352 5351 5350 5350 5350 5350 5349 5349 5349 5348 5347 5345 5343 5341 5340 5338 5337 5337 5338 5338 5337 5336 5336 5337 5339 5339 5340 5342 5345 5346 5348 5351 5354 5357 5360 5364 5367 5371 5375 5378 5382 5386 5391 5395
5437 5434 5431 5428 5425 5422 5418 5415 5412 5409 5406 5403 5400 5398 5395 5392 5390 5387 5385 5383 5381 5379 5377 5376 5375 5373 5372 5370 5369 5367 5365 5361 5359 5357 5357 5357 5356 5356 5354 5353 5351 5349 5348 5347 5346 5345 5345 5344 5343 5343 5343 5342 5341 5340 5338 5336 5334 5332 5331 5331 5331 5330 5329 5328 5327 5328 5329 5329 5330 5332 5334 5335 5336 5338 5341 5344 5346 5349 5353 5356 5360 5364 5368 5372 5377 5381
5434 5431 5428 5425 5422 5419 5415 5411 5408 5406 5402 5399 5396 5393 5391 5388 5385 5382 5380 5378 5376 5374 5372 5370 5369 5367 5366 5365 5364 5363 5361 5358 5356 5354 5353 5352 5351 5351 5350 5348 5346 5345 5344 5342 5341 5340 5340 5339 5338 5337 5336 5336 5335 5334 5331 5330 5328 5327 5326 5325 5324 5323 5322 5321 5320 5320 5320 5321 5321 5322 5323 5324 5326 5327 5329 5331 5334 5336 5339 5343 5346 5350 5354 5358 5362 5367
5431 5427 5424 5421 5418 5416 5412 5408 5405 5402 5399 5396 5392 5389 5386 5384 5381 5378 5376 5373 5371 5369 5367 5365 5363 5361 5360 5359 5358 5358 5356 5354 5352 5351 5349 5347 5347 5346 5346 5344 5342 5341 5339 5338 5336 5335 5334 5334 5332 5331 5330 5330 5329 5327 5325 5323 5322 5321 5320 5318 5316 5315 5315 5314 5312 5312 5312 5313 5313 5313 5314 5315 5316 5318 5319 5321 5322 5325 5328 5331 5334 5337 5340 5343 5347 5352
5427 5424 5421 5418 5415 5412 5409 5405 5402 5399 5396 5392 5389 5386 5383 5380 5377 5374 5371 5369 5366 5365 5363 5361 5358 5356 5355 5353 5352 5352 5351 5350 5349 5347 5345 5344 5342 5342 5341 5340 5338 5336 5335 5334 5332 5330 5329 5328 5327 5326 5324 5323 5322 5320 5318 5317 5316 5315 5313 5310 5309 5308 5308 5306 5305 5304 5305 5305 5305 5305 5306 5306 5307 5308 5310 5311 5312 5315 5317 5320 5322 5324 5327 5330 5334 5338
5424 5421 5417 5414 5411 5408 5405 5402 5398 5395 5392 5389 5386 5382 5380 5376 5373 5371 5368 5365 5363 5360 5358 5356 5354 5352 5350 5348 5347 5346 5346 5345 5344 5343 5341 5340 5339 5338 5337 5336 5335 5332 5331 5329 5328 5326 5324 5323 5321 5320 5318 5317 5315 5314 5312 5310 5309 5307 5305 5303 5303 5302 5301 5299 5298 5297 5298 5298 5298 5298 5298 5298 5299 5300 5301 5302 5304 5306 5308 5310 5312 5313 5316 5318 5322 5325
5420 5417 5414 5411 5407 5404 5401 5398 5395 5391 5388 5385 5382 5379 5376 5373 5370 5367 5364 5361 5359 5357 5355 5352 5350 5348 5346 5344 5342 5341 5341 5340 5340 5338 5337 5336 5335 5334 5333 5332 5331 5329 5327 5325 5324 5322 5320 5317 5316 5314 5312 5311 5310 5308 5306 5305 5303 5300 5299 5298 5297 5296 5294 5292 5291 5291 5290 5290 5291 5291 5291 5291 5291 5292 5293 5294 5296 5297 5300 5301 5302 5304 5306 5308 5311 5314
5417 5413 5410 5407 5403 5400 5397 5394 5391 5387 5384 5381 5378 5375 5372 5370 5367 5364 5361 5358 5355 5353 5351 5349 5347 5344 5342 5340 5339 5338 5337 5336 5335 5334 5333 5332 5331 5330 5328 5327 5326 5325 5323 5321 5319 5317 5315 5313 5311 5308 5307 5305 5304 5303 5302 5300 5298 5296 5294 5293 5292 5290 5289 5288 5286 5285 5284 5284 5284 5284 5284 5284 5285 5285 5286 5287 5288 5290 5291 5293 5294 5296 5297 5300 5302 5305
5413 5410 5407 5403 5400 5396 5393 5390 5386 5383 5380 5377 5374 5371 5369 5366 5363 5361 5358 5355 5352 5350 5347 5346 5344 5341 5339 5337 5335 5334 5334 5332 5331 5330 5329 5328 5327 5326 5324 5323 5321 5320 5319 5317 5315 5312 5311 5308 5306 5304 5302 5301 5299 5298 5297 5296 5294 5292 5290 5288 5287 5286 5286 5284 5282 5280 5279 5279 5278 5278 5278 5278 5278 5279 5279 5280 5281 5282 5283 5285 5287 5289 5290 5291 5293 5296
5410 5406 5403 5400 5396 5392 5389 5386 5382 5379 5376 5373 5370 5367 5365 5362 5360 5357 5354 5352 5349 5346 5344 5342 5341 5339 5337 5335 5333 5331 5330 5329 5328 5327 5326 5325 5323 5322 5321 5319 5317 5316 5314 5313 5311 5309 5307 5305 5303 5301 5298 5297 5295 5294 5292 5291 5290 5288 5286 5284 5282 5281 5281 5280 5278 5276 5276 5274 5273 5273 5272 5272 5272 5272 5273 5274 5275 5276 5277 5278 5280 5281 5283 5284 5286 5288
5406 5403 5399 5396 5392 5389 5385 5382 5379 5375 5372 5369 5366 5363 5360 5358 5356 5353 5351 5348 5346 5343 5341 5339 5338 5336 5335 5333 5331 5329 5328 5326 5325 5324 5323 5322 5320 5319 5317 5316 5314 5312 5311 5310 5308 5306 5304 5302 5300 5297 5295 5293 5291 5289 5288 5286 5285 5283 5281 5280 5278 5277 5276 5275 5275 5274 5272 5270 5269 5268 5267 5266 5266 5266 5268 5269 5270 5270 5271 5272 5273 5274 5276 5277 5279 5281
5403 5399 5396 5392 5389 5385 5382 5378 5375 5371 5368 5365 5362 5359 5356 5354 5351 5349 5347 5345 5342 5341 5338 5337 5335 5334 5332 5331 5329 5328 5326 5324 5323 5321 5320 5319 5318 5316 5315 5313 5311 5310 5308 5306 5304 5302 5300 5298 5295 5293 5291 5289 5287 5285 5283 5281 5280 5278 5277 5275 5274 5272 5271 5271 5270 5270 5268 5266 5265 5264 5263 5261 5261 5262 5263 5264 5265 5265 5266 5266 5267 5268 5269 5271 5272 5274
5400 5396 5392 5389 5385 5381 5378 5375 5371 5368 5365 5361 5358 5355 5352 5350 5347 5345 5343 5341 5339 5337 5336 5334 5333 5332 5330 5329 5328 5326 5325 5323 5321 5320 5318 5316 5315 5314 5312 5311 5309 5307 5305 5303 5301 5298 5296 5294 5291 5288 5286 5283 5281 5279 5277 5276 5274 5272 5271 5270 5269 5268 5267 5266 5266 5264 5263 5262 5261 5260 5258 5257 5257 5257 5258 5259 5259 5260 5261 5261 5262 5263 5264 5265 5266 5267
5396 5393 5389 5385 5382 5378 5374 5371 5368 5364 5361 5358 5355 5351 5349 5346 5344 5342 5340 5338 5336 5335 5333 5332 5331 5330 5328 5327 5326 5325 5323 5322 5320 5318 5317 5315 5313 5312 5310 5308 5306 5304 5302 5300 5297 5294 5291 5289 5286 5283 5280 5277 5275 5273 5271 5270 5268 5266 5265 5264 5264 5263 5262 5261 5260 5259 5257 5256 5256 5255 5254 5253 5253 5253 5253 5253 5254 5255 5256 5256 5257 5258 5258 5259 5260 5261
5393 5390 5386 5382 5378 5375 5371 5367 5364 5361 5357 5354 5351 5348 5345 5343 5341 5339 5337 5335 5334 5332 5331 5330 5328 5327 5326 5325 5324 5323 5322 5321 5319 5317 5316 5314 5312 5311 5308 5306 5304 5302 5299 5297 5294 5291 5288 5285 5281 5278 5275 5272 5269 5266 5265 5264 5262 5261 5259 5258 5257 5257 5256 5255 5255 5253 5252 5251 5250 5249 5249 5248 5248 5248 5248 5248 5249 5250 5251 5251 5252 5252 5253 5254 5255 5256
5390 5386 5383 5379 5375 5371 5367 5364 5361 5357 5354 5351 5348 5345 5342 5340 5338 5336 5334 5333 5331 5330 5329 5327 5326 5326 5325 5323 5322 5321 5320 5319 5317 5316 5315 5313 5311 5309 5307 5305 5302 5300 5297 5294 5291 5288 5285 5282 5279 5275 5271 5268 5264 5261 5259 5258 5256 5255 5254 5252 5251 5251 5250 5249 5248 5248 5246 5245 5244 5243 5243 5242 5242 5242 5242 5243 5243 5244 5245 5246 5247 5247 5248 5249 5250 5251
5387 5383 5380 5376 5372 5368 5364 5361 5357 5354 5350 5347 5345 5342 5339 5337 5335 5333 5331 5330 5329 5328 5327 5326 5325 5324 5323 5322 5321 5320 5318 5317 5316 5314 5313 5311 5310 5307 5305 5303 5301 5298 5295 5293 5290 5287 5284 5281 5277 5273 5269 5264 5261 5257 5254 5252 5251 5250 5248 5247 5246 5245 5244 5243 5242 5241 5240 5239 5238 5237 5237 5236 5236 5236 5237 5236 5237 5238 5239 5241 5242 5242 5243 5244 5244 5245
5384 5380 5376 5372 5369 5365 5361 5357 5354 5350 5347 5344 5341 5339 5336 5334 5332 5331 5329 5328 5327 5326 5325 5324 5323 5322 5321 5321 5319 5318 5317 5316 5314 5313 5311 5310 5308 5306 5303 5301 5298 5296 5293 5291 5289 5286 5283 5279 5275 5271 5266 5261 5256 5253 5251 5248 5246 5245 5244 5242 5241 5240 5238 5237 5236 5235 5234 5233 5232 5231 5231 5231 5230 5230 5230 5230 5231 5232 5233 5235 5236 5237 5238 5239 5239 5240